StationID,Date,MaxTemp,MinTemp,Precipitation,Snowfall,SnowDepth
"CA001018598","1992-12-01",42.62,34.88,0.00,,
"CA001018598","1992-12-02",47.12,38.48,0.00,,
"CA001018598","1992-12-03",43.70,33.26,0.00,,
"CA001018598","1992-12-04",44.60,35.60,0.00,,
"CA001018598","1992-12-05",44.06,36.86,0.00,,
"CA001018598","1992-12-06",47.48,40.28,0.00,,
"CA001018598","1992-12-07",45.86,39.02,18.00,,
"CA001018598","1992-12-08",45.32,40.64,38.00,,
"CA001018598","1992-12-09",46.40,35.60,30.00,,
"CA001018598","1992-12-10",42.44,36.86,42.00,,
"CA001018598","1992-12-11",40.46,35.42,22.00,,
"CA001018598","1992-12-12",42.98,33.80,0.00,,
"CA001018598","1992-12-13",45.50,40.82,40.00,,
"CA001018598","1992-12-14",49.10,38.66,4.00,,
"CA001018598","1992-12-15",44.24,30.20,0.00,,
"CA001018598","1992-12-16",42.08,35.06,8.00,,
"CA001018598","1992-12-17",41.54,33.98,28.00,,
"CA001018598","1992-12-18",38.84,26.78,0.00,,
"CA001018598","1992-12-19",41.90,33.98,26.00,,
"CA001018598","1992-12-20",44.78,36.68,14.00,,
"CA001018598","1992-12-21",46.94,37.76,16.00,,
"CA001018598","1992-12-22",50.72,42.26,0.00,,
"CA001018598","1992-12-23",51.98,45.14,0.00,,
"CA001018598","1992-12-24",50.90,39.20,0.00,,
"CA001018598","1992-12-25",42.62,38.48,12.00,,
"CA001018598","1992-12-26",46.76,35.60,4.00,,
"CA001018598","1992-12-27",42.44,33.62,,,
"CA001018598","1992-12-28",34.88,25.52,,,
"CA001018598","1992-12-29",28.76,26.42,,,
"CA001018598","1992-12-30",29.84,24.44,0.00,,
"CA001018598","1992-12-31",32.90,27.14,0.00,,
"CA001018598","1993-01-01",34.34,28.22,0.00,,
"CA001018598","1993-01-02",34.34,32.00,,,
"CA001018598","1993-01-03",38.84,33.08,,,
"CA001018598","1993-01-04",36.50,31.46,2.00,,
"CA001018598","1993-01-05",31.82,25.88,0.00,,
"CA001018598","1993-01-06",32.54,26.24,0.00,,
"CA001018598","1993-01-07",34.70,28.58,0.00,,
"CA001018598","1993-01-08",39.56,30.74,0.00,,
"CA001018598","1993-01-09",39.56,26.96,0.00,,
"CA001018598","1993-01-10",35.96,23.54,0.00,,
"CA001018598","1993-01-11",35.06,24.08,0.00,,
"CA001018598","1993-01-12",33.98,28.58,0.00,,
"CA001018598","1993-01-13",36.32,29.30,0.00,,
"CA001018598","1993-01-14",39.74,33.80,0.00,,
"CA001018598","1993-01-15",42.44,35.24,0.00,,
"CA001018598","1993-01-16",42.80,30.92,0.00,,
"CA001018598","1993-01-17",40.10,32.36,0.00,,
"CA001018598","1993-01-18",41.18,33.26,0.00,,
"CA001018598","1993-01-19",44.96,33.44,32.00,,
"CA001018598","1993-01-20",46.58,37.04,114.00,,
"CA001018598","1993-01-21",41.18,35.60,40.00,,
"CA001018598","1993-01-22",44.78,30.38,0.00,,
"CA001018598","1993-01-23",40.82,29.48,8.00,,
"CA001018598","1993-01-24",47.12,37.40,386.00,,
"CA001018598","1993-01-25",50.72,43.16,136.00,,
"CA001018598","1993-01-26",51.26,43.34,40.00,,
"CA001018598","1993-01-27",45.68,44.24,0.00,,
"CA001018598","1993-01-28",50.54,43.34,0.00,,
"CA001018598","1993-01-29",49.64,40.64,0.00,,
"CA001018598","1993-01-30",48.20,39.74,0.00,,
"CA001018598","1993-01-31",44.06,34.34,0.00,,
"CA001018598","1993-02-01",48.74,36.14,0.00,,
"CA001018598","1993-02-02",51.44,37.94,0.00,,
"CA001018598","1993-02-03",48.38,39.92,0.00,,
"CA001018598","1993-02-04",58.28,42.08,0.00,,
"CA001018598","1993-02-05",55.76,45.68,0.00,,
"CA001018598","1993-02-06",54.50,43.16,0.00,,
"CA001018598","1993-02-07",53.60,44.42,0.00,,
"CA001018598","1993-02-08",54.50,44.42,0.00,,
"CA001018598","1993-02-09",50.18,,,,
"CA001018598","1993-02-10",50.54,43.16,0.00,,
"CA001018598","1993-02-11",50.36,37.04,0.00,,
"CA001018598","1993-02-12",43.70,32.90,0.00,,
"CA001018598","1993-02-13",46.94,31.82,0.00,,
"CA001018598","1993-02-14",47.66,35.42,0.00,,
"CA001018598","1993-02-15",41.90,34.52,0.00,,
"CA001018598","1993-02-16",39.20,31.28,0.00,,
"CA001018598","1993-02-17",39.38,28.22,0.00,,
"CA001018598","1993-02-18",42.08,26.60,0.00,,
"CA001018598","1993-02-19",42.26,37.40,0.00,,
"CA001018598","1993-02-20",38.30,30.56,,,
"CA001018598","1993-02-21",37.94,31.46,,,
"CA001018598","1993-02-22",42.62,28.04,0.00,,
"CA001018598","1993-02-23",39.74,33.44,0.00,,
"CA001018598","1993-02-24",41.00,28.04,0.00,,
"CA001018598","1993-02-25",42.80,25.70,0.00,,
"CA001018598","1993-02-26",44.42,26.96,0.00,,
"CA001018598","1993-02-27",44.96,30.74,0.00,,
"CA001018598","1993-02-28",49.46,32.90,0.00,,
"CA001018598","1993-03-01",49.28,40.46,16.00,,
"CA001018598","1993-03-02",50.36,37.94,4.00,,
"CA001018598","1993-03-03",55.76,44.96,6.00,,
"CA001018598","1993-03-04",53.24,44.78,64.00,,
"CA001018598","1993-03-05",53.60,44.78,22.00,,
"CA001018598","1993-03-06",57.56,43.88,0.00,,
"CA001018598","1993-03-07",56.84,44.06,0.00,,
"CA001018598","1993-03-08",54.14,37.94,0.00,,
"CA001018598","1993-03-09",52.34,35.96,0.00,,
"CA001018598","1993-03-10",55.40,40.64,0.00,,
"CA001018598","1993-03-11",55.94,45.86,0.00,,
"CA001018598","1993-03-12",53.24,39.56,0.00,,
"CA001018598","1993-03-13",55.40,35.42,0.00,,
"CA001018598","1993-03-14",49.46,42.62,32.00,,
"CA001018598","1993-03-15",53.60,40.46,0.00,,
"CA001018598","1993-03-16",50.54,32.90,68.00,,
"CA001018598","1993-03-17",48.56,40.10,126.00,,
"CA001018598","1993-03-18",51.80,40.28,0.00,,
"CA001018598","1993-03-19",51.80,39.74,14.00,,
"CA001018598","1993-03-20",53.96,44.96,10.00,,
"CA001018598","1993-03-21",52.34,44.60,32.00,,
"CA001018598","1993-03-22",52.88,44.42,126.00,,
"CA001018598","1993-03-23",55.94,39.74,8.00,,
"CA001018598","1993-03-24",51.26,37.76,0.00,,
"CA001018598","1993-03-25",52.34,37.22,0.00,,
"CA001018598","1993-03-26",53.24,34.16,0.00,,
"CA001018598","1993-03-27",56.30,36.68,0.00,,
"CA001018598","1993-03-28",56.48,34.16,0.00,,
"CA001018598","1993-03-29",51.98,41.54,2.00,,
"CA001018598","1993-03-30",58.64,40.64,0.00,,
"CA001018598","1993-03-31",51.26,39.38,0.00,,
"CA001018598","1993-04-01",55.40,44.96,58.00,,
"CA001018598","1993-04-02",55.22,44.60,4.00,,
"CA001018598","1993-04-03",59.36,44.06,6.00,,
"CA001018598","1993-04-04",54.50,35.60,0.00,,
"CA001018598","1993-04-05",54.50,39.92,10.00,,
"CA001018598","1993-04-06",53.42,39.92,0.00,,
"CA001018598","1993-04-07",51.80,42.80,6.00,,
"CA001018598","1993-04-08",58.82,45.50,14.00,,
"CA001018598","1993-04-09",57.74,40.82,0.00,,
"CA001018598","1993-04-10",51.62,43.52,32.00,,
"CA001018598","1993-04-11",58.46,43.88,2.00,,
"CA001018598","1993-04-12",52.52,40.82,0.00,,
"CA001018598","1993-04-13",52.16,40.82,20.00,,
"CA001018598","1993-04-14",55.94,36.68,0.00,,
"CA001018598","1993-04-15",61.70,48.02,2.00,,
"CA001018598","1993-04-16",54.68,42.08,0.00,,
"CA001018598","1993-04-17",59.36,45.50,0.00,,
"CA001018598","1993-04-18",59.54,45.68,0.00,,
"CA001018598","1993-04-19",56.48,37.58,0.00,,
"CA001018598","1993-04-20",67.64,46.04,2.00,,
"CA001018598","1993-04-21",62.96,45.32,4.00,,
"CA001018598","1993-04-22",58.28,44.78,0.00,,
"CA001018598","1993-04-23",56.84,44.24,0.00,,
"CA001018598","1993-04-24",62.78,47.66,4.00,,
"CA001018598","1993-04-25",61.70,42.98,12.00,,
"CA001018598","1993-04-26",53.96,42.26,16.00,,
"CA001018598","1993-04-27",59.00,45.86,0.00,,
"CA001018598","1993-04-28",53.60,46.58,28.00,,
"CA001018598","1993-04-29",62.96,48.38,0.00,,
"CA001018598","1993-04-30",60.62,46.22,0.00,,
"CA001018598","1993-05-01",55.76,46.04,56.00,,
"CA001018598","1993-05-02",56.66,43.70,18.00,,
"CA001018598","1993-05-03",56.30,46.94,6.00,,
"CA001018598","1993-05-04",63.32,44.60,0.00,,
"CA001018598","1993-05-05",56.30,46.40,26.00,,
"CA001018598","1993-05-06",60.98,46.94,36.00,,
"CA001018598","1993-05-07",55.76,44.78,10.00,,
"CA001018598","1993-05-08",61.70,46.04,0.00,,
"CA001018598","1993-05-09",57.56,46.40,18.00,,
"CA001018598","1993-05-10",72.14,49.28,98.00,,
"CA001018598","1993-05-11",69.80,50.90,38.00,,
"CA001018598","1993-05-12",79.70,50.18,0.00,,
"CA001018598","1993-05-13",64.22,51.80,0.00,,
"CA001018598","1993-05-14",65.48,47.30,0.00,,
"CA001018598","1993-05-15",69.26,50.54,0.00,,
"CA001018598","1993-05-16",72.50,46.94,0.00,,
"CA001018598","1993-05-17",75.38,47.30,0.00,,
"CA001018598","1993-05-18",78.98,53.42,0.00,,
"CA001018598","1993-05-19",75.56,54.86,74.00,,
"CA001018598","1993-05-20",67.10,51.44,10.00,,
"CA001018598","1993-05-21",65.48,50.72,0.00,,
"CA001018598","1993-05-22",67.64,50.18,0.00,,
"CA001018598","1993-05-23",73.58,49.46,0.00,,
"CA001018598","1993-05-24",80.78,51.08,0.00,,
"CA001018598","1993-05-25",73.04,54.86,0.00,,
"CA001018598","1993-05-26",71.24,53.78,0.00,,
"CA001018598","1993-05-27",72.50,51.44,52.00,,
"CA001018598","1993-05-28",68.00,53.24,12.00,,
"CA001018598","1993-05-29",70.16,51.44,0.00,,
"CA001018598","1993-05-30",69.08,54.32,50.00,,
"CA001018598","1993-05-31",64.04,52.88,174.00,,
"CA001018598","1993-06-01",68.18,51.26,0.00,,
"CA001018598","1993-06-02",64.76,53.96,40.00,,
"CA001018598","1993-06-03",69.62,52.88,0.00,,
"CA001018598","1993-06-04",65.84,53.96,2.00,,
"CA001018598","1993-06-05",72.86,52.88,0.00,,
"CA001018598","1993-06-06",69.62,55.04,16.00,,
"CA001018598","1993-06-07",66.74,53.06,0.00,,
"CA001018598","1993-06-08",64.04,48.02,0.00,,
"CA001018598","1993-06-09",64.94,51.62,40.00,,
"CA001018598","1993-06-10",64.58,49.82,4.00,,
"CA001018598","1993-06-11",67.28,49.10,4.00,,
"CA001018598","1993-06-12",65.84,49.64,0.00,,
"CA001018598","1993-06-13",64.94,46.94,0.00,,
"CA001018598","1993-06-14",61.52,53.42,42.00,,
"CA001018598","1993-06-15",72.14,55.22,4.00,,
"CA001018598","1993-06-16",71.78,54.68,0.00,,
"CA001018598","1993-06-17",74.84,52.16,0.00,,
"CA001018598","1993-06-18",73.76,55.58,0.00,,
"CA001018598","1993-06-19",68.54,52.52,0.00,,
"CA001018598","1993-06-20",72.50,47.66,0.00,,
"CA001018598","1993-06-21",65.66,50.90,0.00,,
"CA001018598","1993-06-22",65.66,50.18,2.00,,
"CA001018598","1993-06-23",69.80,51.08,0.00,,
"CA001018598","1993-06-24",69.08,52.34,0.00,,
"CA001018598","1993-06-25",77.00,50.18,0.00,,
"CA001018598","1993-06-26",73.58,52.88,0.00,,
"CA001018598","1993-06-27",65.30,50.36,0.00,,
"CA001018598","1993-06-28",69.08,51.80,20.00,,
"CA001018598","1993-06-29",70.16,51.98,0.00,,
"CA001018598","1993-06-30",69.62,49.10,0.00,,
"CA001018598","1993-07-01",71.60,53.96,2.00,,
"CA001018598","1993-07-02",75.02,54.14,0.00,,
"CA001018598","1993-07-03",73.40,56.48,0.00,,
"CA001018598","1993-07-04",73.22,52.88,0.00,,
"CA001018598","1993-07-05",69.08,56.12,0.00,,
"CA001018598","1993-07-06",68.54,49.46,0.00,,
"CA001018598","1993-07-07",75.56,49.10,0.00,,
"CA001018598","1993-07-08",74.66,50.36,0.00,,
"CA001018598","1993-07-09",67.10,49.28,0.00,,
"CA001018598","1993-07-10",70.70,53.60,0.00,,
"CA001018598","1993-07-11",69.80,53.06,0.00,,
"CA001018598","1993-07-12",68.54,55.04,0.00,,
"CA001018598","1993-07-13",71.78,54.68,0.00,,
"CA001018598","1993-07-14",70.70,56.84,18.00,,
"CA001018598","1993-07-15",64.76,52.88,0.00,,
"CA001018598","1993-07-16",66.92,54.68,2.00,,
"CA001018598","1993-07-17",73.58,50.90,0.00,,
"CA001018598","1993-07-18",73.58,50.54,0.00,,
"CA001018598","1993-07-19",69.98,50.72,22.00,,
"CA001018598","1993-07-20",66.02,54.68,70.00,,
"CA001018598","1993-07-21",65.12,54.32,0.00,,
"CA001018598","1993-07-22",66.02,53.78,2.00,,
"CA001018598","1993-07-23",68.54,54.50,0.00,,
"CA001018598","1993-07-24",70.16,57.20,0.00,,
"CA001018598","1993-07-25",73.22,52.16,0.00,,
"CA001018598","1993-07-26",72.32,48.92,0.00,,
"CA001018598","1993-07-27",64.22,50.36,0.00,,
"CA001018598","1993-07-28",68.18,53.96,70.00,,
"CA001018598","1993-07-29",64.22,50.54,12.00,,
"CA001018598","1993-07-30",67.82,49.10,0.00,,
"CA001018598","1993-07-31",75.74,58.28,0.00,,
"CA001018598","1993-08-01",79.70,55.22,0.00,,
"CA001018598","1993-08-02",85.28,58.46,0.00,,
"CA001018598","1993-08-03",87.08,62.78,0.00,,
"CA001018598","1993-08-04",89.42,64.40,0.00,,
"CA001018598","1993-08-05",84.38,59.36,0.00,,
"CA001018598","1993-08-06",76.64,53.60,0.00,,
"CA001018598","1993-08-07",69.98,51.98,0.00,,
"CA001018598","1993-08-08",66.56,57.20,0.00,,
"CA001018598","1993-08-09",62.24,56.12,34.00,,
"CA001018598","1993-08-10",73.58,55.22,0.00,,
"CA001018598","1993-08-11",75.38,52.88,0.00,,
"CA001018598","1993-08-12",72.50,50.54,0.00,,
"CA001018598","1993-08-13",71.60,54.68,0.00,,
"CA001018598","1993-08-14",64.94,56.12,0.00,,
"CA001018598","1993-08-15",66.56,54.14,0.00,,
"CA001018598","1993-08-16",75.20,53.96,0.00,,
"CA001018598","1993-08-17",72.14,53.96,0.00,,
"CA001018598","1993-08-18",75.56,50.72,0.00,,
"CA001018598","1993-08-19",82.04,55.04,0.00,,
"CA001018598","1993-08-20",75.92,53.60,0.00,,
"CA001018598","1993-08-21",63.32,55.04,6.00,,
"CA001018598","1993-08-22",68.72,54.68,34.00,,
"CA001018598","1993-08-23",69.62,55.04,30.00,,
"CA001018598","1993-08-24",68.72,50.36,8.00,,
"CA001018598","1993-08-25",66.74,45.32,0.00,,
"CA001018598","1993-08-26",69.26,45.68,0.00,,
"CA001018598","1993-08-27",71.96,53.24,0.00,,
"CA001018598","1993-08-28",70.70,51.26,0.00,,
"CA001018598","1993-08-29",74.48,48.56,0.00,,
"CA001018598","1993-08-30",75.74,50.90,0.00,,
"CA001018598","1993-08-31",74.30,51.08,0.00,,
"CA001018598","1993-09-01",74.84,,0.00,,
"CA001018598","1993-09-02",78.98,52.16,0.00,,
"CA001018598","1993-09-03",79.34,53.24,0.00,,
"CA001018598","1993-09-04",71.96,52.34,0.00,,
"CA001018598","1993-09-05",69.26,50.18,0.00,,
"CA001018598","1993-09-06",75.56,48.38,0.00,,
"CA001018598","1993-09-07",82.58,55.22,0.00,,
"CA001018598","1993-09-08",79.70,53.60,0.00,,
"CA001018598","1993-09-09",79.88,52.88,0.00,,
"CA001018598","1993-09-10",74.84,49.46,0.00,,
"CA001018598","1993-09-11",68.00,52.16,0.00,,
"CA001018598","1993-09-12",70.88,44.96,0.00,,
"CA001018598","1993-09-13",68.72,45.50,0.00,,
"CA001018598","1993-09-14",65.66,50.90,10.00,,
"CA001018598","1993-09-15",64.94,46.58,0.00,,
"CA001018598","1993-09-16",72.68,48.92,0.00,,
"CA001018598","1993-09-17",69.62,45.68,0.00,,
"CA001018598","1993-09-18",59.54,46.22,0.00,,
"CA001018598","1993-09-19",59.90,47.84,0.00,,
"CA001018598","1993-09-20",62.42,45.32,0.00,,
"CA001018598","1993-09-21",62.42,41.90,0.00,,
"CA001018598","1993-09-22",64.04,43.52,0.00,,
"CA001018598","1993-09-23",65.48,44.78,0.00,,
"CA001018598","1993-09-24",58.28,44.42,10.00,,
"CA001018598","1993-09-25",64.76,48.74,0.00,,
"CA001018598","1993-09-26",69.62,46.40,0.00,,
"CA001018598","1993-09-27",72.32,50.36,0.00,,
"CA001018598","1993-09-28",74.30,50.36,0.00,,
"CA001018598","1993-09-29",69.26,50.54,0.00,,
"CA001018598","1993-09-30",66.74,48.56,2.00,,
"CA001018598","1993-10-01",68.36,47.48,0.00,,
"CA001018598","1993-10-02",72.32,49.82,0.00,,
"CA001018598","1993-10-03",73.40,50.54,0.00,,
"CA001018598","1993-10-04",66.02,45.86,0.00,,
"CA001018598","1993-10-05",62.78,45.50,4.00,,
"CA001018598","1993-10-06",65.66,52.34,20.00,,
"CA001018598","1993-10-07",64.58,47.48,10.00,,
"CA001018598","1993-10-08",62.96,47.30,0.00,,
"CA001018598","1993-10-09",64.76,45.68,0.00,,
"CA001018598","1993-10-10",66.74,48.38,0.00,,
"CA001018598","1993-10-11",68.00,48.56,0.00,,
"CA001018598","1993-10-12",63.50,51.80,0.00,,
"CA001018598","1993-10-13",59.72,53.24,0.00,,
"CA001018598","1993-10-14",58.28,51.08,8.00,,
"CA001018598","1993-10-15",59.72,48.74,0.00,,
"CA001018598","1993-10-16",59.18,49.28,0.00,,
"CA001018598","1993-10-17",59.72,42.08,0.00,,
"CA001018598","1993-10-18",58.46,43.34,0.00,,
"CA001018598","1993-10-19",57.38,40.64,0.00,,
"CA001018598","1993-10-20",56.66,46.04,0.00,,
"CA001018598","1993-10-21",57.38,46.76,0.00,,
"CA001018598","1993-10-22",54.14,48.20,240.00,,
"CA001018598","1993-10-23",58.82,50.72,98.00,,
"CA001018598","1993-10-24",64.04,45.14,2.00,,
"CA001018598","1993-10-25",58.28,44.24,0.00,,
"CA001018598","1993-10-26",56.66,46.40,0.00,,
"CA001018598","1993-10-27",49.82,45.14,0.00,,
"CA001018598","1993-10-28",57.74,46.58,2.00,,
"CA001018598","1993-10-29",52.70,42.98,0.00,,
"CA001018598","1993-10-30",49.28,44.24,2.00,,
"CA001018598","1993-10-31",60.98,42.26,0.00,,
"CA001018598","1993-11-01",54.32,38.66,0.00,,
"CA001018598","1993-11-02",52.88,46.22,,,
"CA001018598","1993-11-03",58.46,46.04,16.00,,
"CA001018598","1993-11-04",51.98,39.02,0.00,,
"CA001018598","1993-11-05",50.54,41.72,0.00,,
"CA001018598","1993-11-06",52.88,38.66,0.00,,
"CA001018598","1993-11-07",50.36,39.02,4.00,,
"CA001018598","1993-11-08",50.18,35.78,2.00,,
"CA001018598","1993-11-09",46.94,38.84,0.00,,
"CA001018598","1993-11-10",51.26,34.70,2.00,,
"CA001018598","1993-11-11",46.22,35.78,2.00,,
"CA001018598","1993-11-12",52.88,37.22,0.00,,
"CA001018598","1993-11-13",54.50,37.04,0.00,,
"CA001018598","1993-11-14",48.20,36.68,2.00,,
"CA001018598","1993-11-15",52.52,41.90,56.00,,
"CA001018598","1993-11-16",51.08,38.12,8.00,,
"CA001018598","1993-11-17",51.44,39.20,0.00,,
"CA001018598","1993-11-18",51.08,32.90,6.00,,
"CA001018598","1993-11-19",50.72,41.18,4.00,,
"CA001018598","1993-11-20",48.92,44.42,54.00,,
"CA001018598","1993-11-21",48.92,34.70,76.00,,
"CA001018598","1993-11-22",37.76,25.52,0.00,,
"CA001018598","1993-11-23",33.62,22.64,0.00,,
"CA001018598","1993-11-24",35.24,22.28,0.00,,
"CA001018598","1993-11-25",39.02,24.98,0.00,,
"CA001018598","1993-11-26",43.70,34.52,14.00,,
"CA001018598","1993-11-27",44.24,38.48,52.00,,
"CA001018598","1993-11-28",48.20,43.70,8.00,,
"CA001018598","1993-11-29",51.08,46.04,0.00,,
"CA001018598","1993-11-30",50.00,42.08,34.00,,
"CA001018598","1993-12-02",49.46,46.58,20.00,,
"CA001018598","1993-12-03",53.78,47.12,20.00,,
"CA001018598","1993-12-04",50.18,34.88,24.00,,
"CA001018598","1993-12-05",45.32,35.96,0.00,,
"CA001018598","1993-12-06",45.14,32.54,0.00,,
"CA001018598","1993-12-07",47.84,42.44,30.00,,
"CA001018598","1993-12-08",50.00,44.24,20.00,,
"CA001018598","1993-12-09",50.90,43.52,26.00,,
"CA001018598","1993-12-10",52.52,45.86,,,
"CA001018598","1993-12-11",48.02,43.34,24.00,,
"CA001018598","1993-12-12",46.76,36.86,0.00,,
"CA001018598","1993-12-13",51.08,44.78,0.00,,
"CA001018598","1993-12-14",49.46,45.50,0.00,,
"CA001018598","1993-12-15",47.30,38.84,0.00,,
"CA001018598","1993-12-16",45.50,38.30,0.00,,
"CA001018598","1993-12-17",43.70,35.96,0.00,,
"CA001018598","1993-12-18",42.98,34.16,0.00,,
"CA001018598","1993-12-19",44.78,38.48,0.00,,
"CA001018598","1993-12-20",47.12,40.64,0.00,,
"CA001018598","1993-12-21",45.50,36.86,0.00,,
"CA001018598","1993-12-22",46.76,35.06,0.00,,
"CA001018598","1993-12-23",44.78,36.14,0.00,,
"CA001018598","1993-12-24",45.68,36.68,0.00,,
"CA001018598","1993-12-25",41.00,34.34,0.00,,
"CA001018598","1993-12-26",43.34,36.50,0.00,,
"CA001018598","1993-12-27",42.62,38.12,0.00,,
"CA001018598","1993-12-28",43.70,39.02,0.00,,
"CA001018598","1993-12-29",46.94,41.54,12.00,,
"CA001018598","1993-12-30",47.48,44.60,124.00,,
"CA001018598","1993-12-31",49.28,45.32,8.00,,
"CA001018598","1994-01-01",50.72,42.62,,,
"CA001018598","1994-01-02",55.94,42.80,,,
"CA001018598","1994-01-03",49.10,42.26,,,
"CA001018598","1994-01-04",52.70,44.78,,,
"CA001018598","1994-01-05",50.00,40.10,,,
"CA001018598","1994-01-06",48.92,33.26,,,
"CA001018598","1994-01-07",47.48,42.26,,,
"CA001018598","1994-01-08",50.72,42.80,,,
"CA001018598","1994-01-09",54.32,43.34,,,
"CA001018598","1994-01-10",49.46,45.32,,,
"CA001018598","1994-01-11",48.20,44.24,,,
"CA001018598","1994-01-12",51.98,45.86,,,
"CA001018598","1994-01-13",54.14,44.42,,,
"CA001018598","1994-01-14",50.18,44.42,,,
"CA001018598","1994-01-15",51.26,46.58,,,
"CA001018598","1994-01-16",52.88,45.50,,,
"CA001018598","1994-01-17",50.72,41.36,,,
"CA001018598","1994-01-18",48.56,38.66,,,
"CA001018598","1994-01-19",48.92,41.18,,,
"CA001018598","1994-01-20",48.20,41.36,,,
"CA001018598","1994-01-21",50.90,43.16,,,
"CA001018598","1994-01-22",54.32,43.52,,,
"CA001018598","1994-01-23",51.80,44.24,,,
"CA001018598","1994-01-24",48.38,45.50,,,
"CA001018598","1994-01-25",48.92,45.86,,,
"CA001018598","1994-01-26",51.08,41.36,,,
"CA001018598","1994-01-27",49.46,39.02,,,
"CA001018598","1994-01-28",48.02,33.98,,,
"CA001018598","1994-01-29",48.02,36.68,,,
"CA001018598","1994-01-30",50.18,38.30,,,
"CA001018598","1994-01-31",45.86,35.24,,,
"CA001018598","1994-02-01",45.86,35.42,,,
"CA001018598","1994-02-02",43.16,35.06,,,
"CA001018598","1994-02-03",41.90,35.96,,,
"CA001018598","1994-02-04",44.06,34.34,,,
"CA001018598","1994-02-05",41.54,32.00,,,
"CA001018598","1994-02-06",40.82,32.00,,,
"CA001018598","1994-02-07",40.28,31.10,,,
"CA001018598","1994-02-08",39.74,25.70,,,
"CA001018598","1994-02-09",50.72,34.70,,,
"CA001018598","1994-02-10",47.30,33.80,,,
"CA001018598","1994-02-11",47.30,31.64,,,
"CA001018598","1994-02-12",47.84,40.10,,,
"CA001018598","1994-02-13",46.76,38.48,,,
"CA001018598","1994-02-14",47.66,40.46,,,
"CA001018598","1994-02-15",48.74,42.98,,,
"CA001018598","1994-02-16",51.62,45.68,,,
"CA001018598","1994-02-17",49.46,41.36,,,
"CA001018598","1994-02-18",48.74,38.12,,,
"CA001018598","1994-02-19",47.66,34.34,,,
"CA001018598","1994-02-20",51.08,39.20,,,
"CA001018598","1994-02-21",48.74,35.96,,,
"CA001018598","1994-02-22",49.28,35.60,,,
"CA001018598","1994-02-23",44.96,34.52,,,
"CA001018598","1994-02-24",37.22,31.46,,,
"CA001018598","1994-02-25",39.92,30.92,,,
"CA001018598","1994-02-26",46.94,39.02,,,
"CA001018598","1994-02-27",50.90,40.82,,,
"CA001018598","1994-02-28",57.02,47.30,,,
"CA001018598","1994-03-01",55.40,48.02,,,
"CA001018598","1994-03-02",60.98,47.48,,,
"CA001018598","1994-03-03",50.54,43.16,,,
"CA001018598","1994-03-04",53.78,40.64,,,
"CA001018598","1994-03-05",49.10,35.60,,,
"CA001018598","1994-03-06",48.20,33.62,,,
"CA001018598","1994-03-07",51.62,34.34,,,
"CA001018598","1994-03-08",54.14,38.30,,,
"CA001018598","1994-03-09",52.52,38.66,,,
"CA001018598","1994-03-10",55.58,44.24,,,
"CA001018598","1994-03-11",53.42,39.74,,,
"CA001018598","1994-03-12",54.32,42.62,,,
"CA001018598","1994-03-13",59.00,45.68,,,
"CA001018598","1994-03-14",52.70,42.08,,,
"CA001018598","1994-03-15",55.40,39.74,,,
"CA001018598","1994-03-16",52.70,39.38,,,
"CA001018598","1994-03-17",50.00,40.82,,,
"CA001018598","1994-03-18",50.18,38.66,,,
"CA001018598","1994-03-19",50.18,33.44,,,
"CA001018598","1994-03-20",48.92,40.10,,,
"CA001018598","1994-03-21",46.76,36.14,,,
"CA001018598","1994-03-22",46.40,30.74,,,
"CA001018598","1994-03-23",48.92,37.22,,,
"CA001018598","1994-03-24",54.50,40.10,,,
"CA001018598","1994-03-25",58.10,35.96,,,
"CA001018598","1994-03-26",65.66,39.92,,,
"CA001018598","1994-03-27",64.58,42.26,,,
"CA001018598","1994-03-28",69.80,47.30,,,
"CA001018598","1994-03-29",67.46,42.44,,,
"CA001018598","1994-03-30",63.32,48.38,,,
"CA001018598","1994-03-31",61.16,42.80,,,
"CA001018598","1994-04-01",59.00,45.68,,,
"CA001018598","1994-04-02",61.88,44.06,,,
"CA001018598","1994-04-03",58.28,46.94,,,
"CA001018598","1994-04-04",56.66,43.52,,,
"CA001018598","1994-04-05",50.00,39.74,,,
"CA001018598","1994-04-06",53.24,42.80,,,
"CA001018598","1994-04-07",57.56,45.14,,,
"CA001018598","1994-04-08",52.16,46.94,,,
"CA001018598","1994-04-09",59.00,42.62,,,
"CA001018598","1994-04-10",56.30,42.44,,,
"CA001018598","1994-04-11",56.30,46.58,16.00,,
"CA001018598","1994-04-12",57.20,44.96,6.00,,
"CA001018598","1994-04-13",52.70,45.14,0.00,,
"CA001018598","1994-04-14",55.04,39.56,0.00,,
"CA001018598","1994-04-15",57.56,44.60,0.00,,
"CA001018598","1994-04-16",66.92,42.44,0.00,,
"CA001018598","1994-04-17",64.94,44.96,0.00,,
"CA001018598","1994-04-18",62.24,48.38,12.00,,
"CA001018598","1994-04-19",64.04,51.80,0.00,,
"CA001018598","1994-04-20",65.66,44.42,0.00,,
"CA001018598","1994-04-21",64.40,47.66,0.00,,
"CA001018598","1994-04-22",60.98,45.32,0.00,,
"CA001018598","1994-04-23",64.76,42.44,0.00,,
"CA001018598","1994-04-24",54.68,42.62,20.00,,
"CA001018598","1994-04-25",61.88,41.54,2.00,,
"CA001018598","1994-04-26",55.58,48.20,14.00,,
"CA001018598","1994-04-27",66.20,49.28,0.00,,
"CA001018598","1994-04-28",65.30,44.78,0.00,,
"CA001018598","1994-04-29",57.92,45.86,42.00,,
"CA001018598","1994-04-30",60.98,45.86,0.00,,
"CA001018598","1994-05-01",59.00,41.36,2.00,,